This demonstration page uses our WeatherBlox Daily Observations layout. Learn more.

Left ArrowRight Arrow

Hourly Observations for February 7, 2016

Temp ( °F °C ) Dew Point ( °F °C ) Humidity (%) Winds ( mph kmh ) Pressure ( in mb ) Visibility ( mi km ) Precip ( " mm )
12:58 am 00:58 Clear 36 2.1 28 -2.3 73 73 WSW 6 9 29.96 1015 10 16 0.00 0.00
1:58 am 01:58 Clear 30 -0.9 26 -3.5 83 83 SW 5 7 29.96 1015 10 16 0.00 0.00
2:58 am 02:58 Clear 33 0.6 27 -2.6 79 79 WNW 8 13 29.97 1015 10 16 0.00 0.00
3:58 am 03:58 Clear 28 -2.5 25 -3.9 90 90 W 5 7 29.97 1015 10 16 0.00 0.00
4:58 am 04:58 Clear 33 0.5 27 -2.9 78 78 W 8 13 29.98 1015 10 16 0.00 0.00
5:58 am 05:58 Clear 31 -0.7 26 -3.5 82 82 Calm 29.98 1015 10 16 0.00 0.00
6:58 am 06:58 Clear 34 1.3 26 -3.5 71 71 WNW 10 17 29.98 1015 10 16 0.00 0.00
7:58 am 07:58 Sunny 36 2.1 25 -3.9 65 65 W 6 9 30.01 1016 10 16 0.00 0.00
8:58 am 08:58 Sunny 37 2.9 25 -4.1 60 60 WNW 16 26 30.01 1016 10 16 0.00 0.00
9:58 am 09:58 Sunny 40 4.6 26 -3.2 57 57 WNW 17 28 30.03 1017 10 16 0.00 0.00
10:58 am 10:58 Mostly Sunny 42 5.5 28 -2.4 57 57 WNW 17 28 30.03 1017 10 16 0.00 0.00
11:58 am 11:58 Partly Cloudy 43 5.9 28 -2.3 56 56 WNW 17 28 30.03 1017 10 16 0.00 0.00
12:58 pm 12:58 Sunny 44 6.4 26 -3.4 50 50 W 17 28 29.99 1016 10 16 0.00 0.00
1:58 pm 13:58 Sunny 44 6.5 24 -4.3 46 46 WNW 30 48 29.98 1015 10 16 0.00 0.00
2:58 pm 14:58 Cloudy 42 5.7 22 -5.3 45 45 WNW 25 41 29.96 1015 10 16 0.00 0.00
3:58 pm 15:58 Mostly Cloudy 38 3.6 28 -2.5 65 65 NW 29 46 30.00 1016 10 16 0.00 0.00
3:59 pm 15:59 Mostly Cloudy with Light Rain 39 4 28 -2 65 65 NW 29 46 30.00 1016 10 16 0.00 0.00
4:26 pm 16:26 Cloudy with Light Rain/Snow 37 3 28 -2 70 70 WNW 23 37 30.00 1016 10 16 0.00 0.00
4:42 pm 16:42 Cloudy 37 3 28 -2 70 70 WNW 26 43 30.00 1016 10 16 0.00 0.00
4:44 pm 16:44 Cloudy 37 3 28 -2 70 70 WNW 24 39 30.00 1016 10 16 0.00 0.00
4:46 pm 16:46 Cloudy with Light Rain 37 3 28 -2 70 70 WNW 21 33 30.00 1016 10 16 0.00 0.00
4:49 pm 16:49 Cloudy with Light Rain 37 3 28 -2 70 70 WNW 24 39 30.00 1016 10 16 0.00 0.00
4:51 pm 16:51 Cloudy with Light Rain 37 3 28 -2 70 70 WNW 24 39 30.00 1016 10 16 0.00 0.00
4:52 pm 16:52 Cloudy with Light Rain 37 3 28 -2 70 70 WNW 25 41 30.00 1016 10 16 0.00 0.00
4:58 pm 16:58 Windy with Snow Likely 37 3 30 -1 75 75 WNW 26 43 29.99 1016 10 16 0.01 0.25
5:39 pm 17:39 Cloudy with Light Rain 36 2 32 0 87 87 WNW 21 33 30.00 1016 10 16 0.00 0.00
5:41 pm 17:41 Cloudy with Light Snow 36 2 32 0 87 87 WNW 18 30 30.00 1016 10 16 0.00 0.00
5:58 pm 17:58 Windy with Snow Likely 36 2.1 30 -0.9 81 81 WNW 25 41 30.00 1016 10 16 0.00 0.03
6:04 pm 18:04 Windy with Snow Likely 36 2 32 0 87 87 WNW 23 37 30.00 1016 10 16 0.00 0.00
6:20 pm 18:20 Cloudy with Light Rain 36 2 32 0 87 87 WNW 26 43 30.00 1016 10 16 0.00 0.00
6:22 pm 18:22 Cloudy with Light Rain 36 2 32 0 87 87 WNW 22 35 30.00 1016 10 16 0.00 0.00
6:26 pm 18:26 Cloudy with Light Rain 36 2 32 0 87 87 NW 22 35 30.00 1016 10 16 0.00 0.00
6:32 pm 18:32 Cloudy with Light Rain 36 2 30 -1 81 81 NW 26 43 30.00 1016 10 16 0.00 0.00
6:45 pm 18:45 Cloudy with Light Rain 36 2 28 -2 75 75 NW 26 43 30.00 1016 10 16 0.00 0.00
6:49 pm 18:49 Cloudy 36 2 28 -2 75 75 NW 24 39 30.00 1016 10 16 0.00 0.00
6:52 pm 18:52 Cloudy with Light Rain 36 2 30 -1 81 81 NW 24 39 30.00 1016 10 16 0.00 0.00
6:58 pm 18:58 Cloudy with Light Rain 35 1.5 29 -1.5 81 81 NW 16 26 30.03 1017 10 16 0.00 0.03
7:09 pm 19:09 Cloudy 36 2 28 -2 75 75 NW 20 31 30.00 1016 10 16 0.00 0.00
7:54 pm 19:54 Cloudy with Light Rain 36 2 27 -3 70 70 NW 22 35 30.03 1017 10 16 0.00 0.00
7:58 pm 19:58 Windy with Snow Likely 35 1.6 26 -3.1 71 71 NW 21 33 30.03 1017 10 16 0.00 0.03
8:33 pm 20:33 Windy with Snow Likely 34 1 28 -2 81 81 NW 20 31 30.06 1018 10 16 0.00 0.00
8:58 pm 20:58 Cloudy with Light Snow 34 0.9 29 -1.9 82 82 NW 17 28 30.03 1017 10 16 0.00 0.03
9:05 pm 21:05 Cloudy 34 1 28 -2 81 81 NW 28 44 30.00 1016 10 16 0.00 0.00
9:22 pm 21:22 Cloudy 34 1 25 -4 70 70 NW 28 44 30.00 1016 10 16 0.00 0.00
9:24 pm 21:24 Cloudy 34 1 25 -4 70 70 NW 29 46 30.00 1016 10 16 0.00 0.00
9:26 pm 21:26 Cloudy 34 1 27 -3 75 75 NW 24 39 30.00 1016 10 16 0.00 0.00
9:32 pm 21:32 Cloudy with Light Rain 34 1 27 -3 75 75 NW 31 50 30.00 1016 10 16 0.00 0.00
9:34 pm 21:34 Windy with Snow Likely 34 1 27 -3 75 75 NW 31 50 30.00 1016 10 16 0.00 0.00
9:58 pm 21:58 Windy with Snow Likely 34 1.3 26 -3.6 70 70 NW 31 50 30.01 1016 10 16 0.00 0.03
10:12 pm 22:12 Windy with Snow Likely 34 1 27 -3 75 75 NW 25 41 30.00 1016 5 8 0.00 0.00
10:56 pm 22:56 Windy with Snow Likely 32 0 23 -5 69 69 NW 33 54 30.06 1018 10 16 0.00 0.00
10:58 pm 22:58 Windy with Snow Likely 33 0.6 24 -4.7 68 68 NW 35 56 30.03 1017 10 16 0.00 0.03
11:03 pm 23:03 Cloudy 32 0 23 -5 69 69 NNW 37 59 30.06 1018 10 16 0.00 0.00
11:47 pm 23:47 Windy with Snow Likely 32 0 21 -6 64 64 NW 22 35 30.06 1018 10 16 0.00 0.00
11:52 pm 23:52 Cloudy 32 0 21 -6 64 64 NW 26 43 30.06 1018 10 16 0.00 0.00
11:58 pm 23:58 Cloudy 32 -0.2 21 -6 65 65 NW 22 35 30.04 1017 10 16 0.00 0.03

Powered by AerisWeather